TimeCDT,TemperatureF,Dew PointF,Humidity,Sea Level PressureIn,VisibilityMPH,Wind Direction,Wind SpeedMPH,Gust SpeedMPH,PrecipitationIn,Events,Conditions,WindDirDegrees,DateUTC
12:15 AM,60.4,54.7,81,30.06,10.0,Calm,Calm,-,N/A,,Clear,0,2013-07-03 05:15:00
12:35 AM,60.4,54.7,81,30.06,10.0,NNE,4.6,-,N/A,,Clear,30,2013-07-03 05:35:00
12:55 AM,60.3,55.2,83,30.05,10.0,NNW,5.8,-,N/A,,Clear,340,2013-07-03 05:55:00
1:15 AM,59.9,55.4,85,30.05,10.0,North,4.6,-,N/A,,Clear,360,2013-07-03 06:15:00
1:35 AM,59.9,55.4,85,30.05,10.0,North,5.8,-,N/A,,Clear,360,2013-07-03 06:35:00
1:55 AM,58.8,54.5,86,30.05,10.0,NE,3.5,-,N/A,,Clear,40,2013-07-03 06:55:00
2:15 AM,58.3,54.5,87,30.05,10.0,Calm,Calm,-,N/A,,Scattered Clouds,0,2013-07-03 07:15:00
2:35 AM,58.1,54.5,88,30.05,10.0,NNE,5.8,-,N/A,,Scattered Clouds,20,2013-07-03 07:35:00
2:55 AM,58.3,54.3,87,30.04,10.0,NE,3.5,-,N/A,,Clear,50,2013-07-03 07:55:00
3:15 AM,58.3,54.5,87,30.04,10.0,North,5.8,-,N/A,,Mostly Cloudy,350,2013-07-03 08:15:00
3:35 AM,58.1,54.5,88,30.04,10.0,NNW,3.5,-,N/A,,Mostly Cloudy,340,2013-07-03 08:35:00
3:55 AM,57.6,54.1,88,30.03,10.0,North,5.8,-,N/A,,Scattered Clouds,360,2013-07-03 08:55:00
4:15 AM,57.4,54.3,90,30.03,10.0,North,4.6,-,N/A,,Scattered Clouds,360,2013-07-03 09:15:00
4:35 AM,57.4,54.3,90,30.04,10.0,Calm,Calm,-,N/A,,Scattered Clouds,0,2013-07-03 09:35:00
4:55 AM,57.4,54.5,90,30.04,10.0,North,3.5,-,N/A,,Mostly Cloudy,350,2013-07-03 09:55:00
5:15 AM,57.6,54.5,90,30.05,10.0,Calm,Calm,-,N/A,,Overcast,0,2013-07-03 10:15:00
5:35 AM,58.1,54.9,89,30.05,10.0,NW,4.6,-,N/A,,Overcast,320,2013-07-03 10:35:00
5:55 AM,58.1,54.7,88,30.05,10.0,NW,6.9,-,N/A,,Overcast,320,2013-07-03 10:55:00
6:15 AM,58.5,54.9,88,30.06,10.0,NW,5.8,-,N/A,,Overcast,320,2013-07-03 11:15:00
6:35 AM,58.8,54.9,87,30.05,10.0,NNW,6.9,-,N/A,,Overcast,340,2013-07-03 11:35:00
6:55 AM,59.9,55.8,86,30.06,10.0,NNW,6.9,-,N/A,,Overcast,340,2013-07-03 11:55:00
7:15 AM,59.9,55.4,85,30.06,10.0,NNW,5.8,-,N/A,,Overcast,340,2013-07-03 12:15:00
7:35 AM,59.9,55.4,85,30.07,10.0,NNW,4.6,-,N/A,,Overcast,340,2013-07-03 12:35:00
7:55 AM,60.4,55.8,85,30.08,10.0,NNW,4.6,-,N/A,,Overcast,330,2013-07-03 12:55:00
8:15 AM,60.4,55.9,85,30.08,10.0,NNW,4.6,-,N/A,,Overcast,340,2013-07-03 13:15:00
8:35 AM,60.8,56.3,85,30.08,10.0,North,6.9,-,N/A,,Overcast,350,2013-07-03 13:35:00
8:55 AM,61.2,56.7,85,30.08,10.0,North,4.6,-,N/A,,Overcast,10,2013-07-03 13:55:00
9:15 AM,61.7,57.0,85,30.08,10.0,North,3.5,-,N/A,,Overcast,10,2013-07-03 14:15:00
9:35 AM,62.2,57.6,85,30.08,10.0,North,4.6,-,N/A,,Overcast,10,2013-07-03 14:35:00
9:55 AM,62.8,57.9,84,30.08,10.0,NNE,4.6,-,N/A,,Overcast,20,2013-07-03 14:55:00
10:15 AM,63.1,58.1,84,30.08,10.0,Calm,Calm,-,N/A,,Overcast,0,2013-07-03 15:15:00
10:35 AM,63.1,57.9,83,30.08,10.0,North,3.5,-,N/A,,Overcast,350,2013-07-03 15:35:00
10:55 AM,63.7,58.5,83,30.08,10.0,North,3.5,-,N/A,,Overcast,350,2013-07-03 15:55:00
11:15 AM,64.0,58.5,82,30.08,10.0,NNW,4.6,-,N/A,,Overcast,330,2013-07-03 16:15:00
11:35 AM,64.4,58.5,81,30.09,10.0,North,3.5,-,N/A,,Overcast,360,2013-07-03 16:35:00
11:55 AM,65.1,58.5,79,30.08,10.0,North,4.6,-,N/A,,Overcast,350,2013-07-03 16:55:00
12:15 PM,66.2,58.8,77,30.08,10.0,NNW,4.6,-,N/A,,Overcast,330,2013-07-03 17:15:00
12:35 PM,67.3,59.0,75,30.08,10.0,NW,5.8,-,N/A,,Overcast,310,2013-07-03 17:35:00
12:55 PM,68.2,59.2,73,30.07,10.0,Calm,Calm,-,N/A,,Overcast,0,2013-07-03 17:55:00
1:15 PM,68.4,59.2,72,30.07,10.0,Calm,Calm,-,N/A,,Overcast,0,2013-07-03 18:15:00
1:35 PM,68.4,59.2,72,30.07,10.0,Calm,Calm,-,N/A,,Overcast,0,2013-07-03 18:35:00
1:55 PM,68.5,59.4,72,30.07,10.0,Calm,Calm,-,N/A,,Overcast,0,2013-07-03 18:55:00
2:15 PM,68.9,59.5,72,30.07,10.0,ENE,3.5,-,N/A,,Overcast,70,2013-07-03 19:15:00
2:35 PM,70.3,59.9,69,30.06,10.0,Calm,Calm,-,N/A,,Overcast,0,2013-07-03 19:35:00
2:55 PM,69.8,59.5,70,30.07,10.0,Calm,Calm,-,N/A,,Overcast,0,2013-07-03 19:55:00
3:15 PM,70.0,60.1,71,30.06,10.0,Calm,Calm,-,N/A,,Overcast,0,2013-07-03 20:15:00
3:35 PM,70.7,60.1,69,30.05,10.0,Calm,Calm,-,N/A,,Overcast,0,2013-07-03 20:35:00
3:55 PM,70.5,59.9,69,30.05,10.0,Calm,Calm,-,N/A,,Overcast,0,2013-07-03 20:55:00
4:15 PM,71.1,59.9,68,30.05,10.0,Calm,Calm,-,N/A,,Overcast,0,2013-07-03 21:15:00
4:35 PM,72.7,60.1,64,30.05,10.0,Calm,Calm,-,N/A,,Mostly Cloudy,0,2013-07-03 21:35:00
4:55 PM,71.6,59.4,65,30.05,10.0,Calm,Calm,-,N/A,,Mostly Cloudy,0,2013-07-03 21:55:00
5:15 PM,71.6,60.1,67,30.05,10.0,ESE,3.5,-,N/A,,Mostly Cloudy,110,2013-07-03 22:15:00
5:35 PM,72.7,61.5,68,30.04,10.0,East,4.6,-,N/A,,Mostly Cloudy,80,2013-07-03 22:35:00
5:55 PM,73.4,60.1,63,30.04,10.0,SSE,3.5,-,N/A,,Scattered Clouds,150,2013-07-03 22:55:00
6:15 PM,73.4,59.2,61,30.04,10.0,Calm,Calm,-,N/A,,Scattered Clouds,0,2013-07-03 23:15:00
6:35 PM,73.2,57.6,58,30.03,10.0,Calm,Calm,-,N/A,,Clear,0,2013-07-03 23:35:00
6:55 PM,72.9,57.6,59,30.04,10.0,Calm,Calm,-,N/A,,Clear,0,2013-07-03 23:55:00
7:15 PM,72.9,57.2,58,30.03,10.0,Calm,Calm,-,N/A,,Clear,0,2013-07-04 00:15:00
7:35 PM,72.9,58.1,60,30.04,10.0,Calm,Calm,-,N/A,,Clear,0,2013-07-04 00:35:00
7:55 PM,71.6,61.0,69,30.04,10.0,East,3.5,-,N/A,,Clear,100,2013-07-04 00:55:00
8:15 PM,69.3,61.3,76,30.04,10.0,East,4.6,-,N/A,,Clear,100,2013-07-04 01:15:00
8:35 PM,68.0,61.2,79,30.04,10.0,East,5.8,-,N/A,,Clear,100,2013-07-04 01:35:00
8:55 PM,67.5,61.0,80,30.04,10.0,East,4.6,-,N/A,,Clear,100,2013-07-04 01:55:00
9:15 PM,66.6,61.0,82,30.05,10.0,ESE,4.6,-,N/A,,Clear,110,2013-07-04 02:15:00
9:35 PM,65.7,60.8,84,30.06,10.0,ESE,4.6,-,N/A,,Clear,110,2013-07-04 02:35:00
9:55 PM,66.2,60.8,83,30.07,10.0,ESE,5.8,-,N/A,,Clear,120,2013-07-04 02:55:00
10:15 PM,65.7,60.8,84,30.07,10.0,ESE,5.8,-,N/A,,Clear,120,2013-07-04 03:15:00
10:35 PM,64.9,60.6,86,30.08,10.0,SE,5.8,-,N/A,,Clear,130,2013-07-04 03:35:00
10:55 PM,64.9,60.8,86,30.07,10.0,SE,3.5,-,N/A,,Clear,130,2013-07-04 03:55:00
11:15 PM,64.6,60.8,88,30.07,10.0,SE,4.6,-,N/A,,Clear,130,2013-07-04 04:15:00
11:35 PM,63.7,59.7,87,30.07,7.0,ESE,3.5,-,N/A,,Clear,110,2013-07-04 04:35:00
11:55 PM,63.7,60.3,89,30.08,7.0,ESE,4.6,-,N/A,,Clear,120,2013-07-04 04:55:00